Location: Red Rock Farm
(35.2100°N, 97.2200°W)
Time: 14:51:44
(UTC-05:00)

Daily predictions for brighter satellites

Satellite Brightness Start Highest point End
(mag) Time Altitude Azimuth Time Altitude Azimuth Time Altitude Azimuth
Meteor 1-18 Rocket 4.4 20:52:33 10° S 20:58:18 64° E 21:04:09 10° NNE
Cosmos 2151 Rocket 4.0 20:54:26 10° NNW 20:58:51 70° W 21:03:13 10° S
Cosmos 1864 Rocket 4.5 20:54:34 10° S 21:00:41 69° E 21:06:46 10° NNE
Cosmos 1939 Rocket 3.2 20:58:53 10° SSE 21:02:52 51° ENE 21:06:53 10° N
Cosmos 2322 Rocket 3.3 21:02:08 10° N 21:06:59 29° ENE 21:11:46 10° ESE
CZ-2D R/B 3.9 21:05:01 10° S 21:08:49 58° W 21:12:40 10° NNW
YAOGAN 6 2.6 21:06:24 10° SSE 21:10:05 74° ENE 21:13:46 10° N
Cosmos 1242 Rocket 3.9 21:09:15 10° NNE 21:12:14 23° ENE 21:15:05 10° SE
SL-16 R/B 2.9 21:12:00 10° N 21:17:16 37° ENE 21:22:11 11° SE
Cosmos 1340 Rocket 4.4 21:18:27 11° SE 21:21:02 18° E 21:23:51 10° NE
Thor Agena Rocket 3.7 21:16:05 10° NNE 21:21:21 82° WNW 21:26:32 10° SSW
OAO 1 Rocket 4.5 21:18:46 10° W 21:24:07 89° S 21:29:29 10° E
GPS 2-05 Rocket1 3.6 21:21:31 10° SW 21:24:25 29° SSE 21:26:55 13° E
SJ-11-01 4.3 21:21:28 10° SSE 21:26:08 67° ENE 21:30:50 10° N
Spot 2 Rocket 3.6 21:25:23 10° SSE 21:30:19 59° ENE 21:35:16 10° N
Timation 2 Rocket 4.0 21:24:44 10° SSW 21:30:41 80° WNW 21:36:46 10° NNE
Resurs 1-3 3.6 21:28:12 10° SSE 21:32:35 89° WSW 21:36:59 10° NNW
Cosmos 468 Rocket 4.2 21:27:24 10° SSW 21:32:40 75° WNW 21:37:54 10° NNE
Cosmos 1763 Rocket 3.5 21:31:44 10° S 21:37:01 73° ESE 21:42:18 10° NNE
Cosmos 1937 Rocket 3.9 21:32:58 10° N 21:37:54 45° ENE 21:41:33 17° SE
Cosmos 1455 Rocket 4.2 21:38:34 10° NNE 21:42:19 27° ENE 21:44:21 19° ESE
Cosmos 841 Rocket 3.6 21:38:30 10° S 21:43:35 56° ESE 21:48:44 10° NNE
USA 186 3.9 21:45:36 10° SSW 21:48:20 26° W 21:51:13 10° NW
ERS-2 3.0 21:44:51 10° S 21:48:24 47° W 21:51:59 10° NNW
DELTA 2 R/B (1) 4.4 21:44:49 10° SSW 21:49:30 28° SE 21:53:20 14° E
Cosmos 1975 Rocket 3.1 21:45:54 10° S 21:50:13 79° W 21:54:33 10° N
Cosmos 1666 3.0 21:51:34 10° NNW 21:55:25 66° W 21:58:44 13° S
Okean 1 Rocket 4.3 21:51:38 10° NNW 21:55:40 39° W 21:59:41 10° SSW
BREEZE M DEB (TANK) 4.1 21:45:50 10° NW 21:55:56 45° NNE 21:58:38 18° E
Cosmos 1975 3.5 21:52:01 10° NNW 21:55:57 54° W 21:59:50 10° S
Cosmos 2360 Rocket 3.2 21:51:05 10° N 21:56:06 32° ENE 21:58:58 20° ESE
USA 32 4.4 21:51:28 10° N 21:56:30 45° E 21:59:24 23° SE
Tiangong 2 3.6 21:54:10 10° WNW 21:56:38 20° N 21:59:05 10° NE
Atlas Centaur 2 2.4 21:54:33 10° WSW 21:57:49 24° SSW 21:58:46 22° S
Cosmos 1980 Rocket 4.0 21:53:52 10° NW 21:58:35 28° WSW 22:03:18 10° SSW
Shenzhou-11 Module 3.6 21:56:54 10° NW 21:59:33 28° NNE 22:01:05 18° ENE
USA 234 3.4 21:55:03 10° NE 22:01:37 78° NW 22:08:10 10° SW
Cosmos 858 Rocket 4.4 21:56:34 10° NNW 22:01:48 89° ENE 22:05:19 21° SSE
Delta 7925 Rocket 4.4 21:59:03 10° WSW 22:02:54 25° S 22:04:01 22° SSE
Cosmos 292 Rocket 3.7 22:01:42 10° SSW 22:06:27 90° ESE 22:11:13 10° NNE
MetOp-A 4.2 22:04:53 25° SE 22:07:59 60° ENE 22:13:16 10° N
ERS-1 Rocket 3.6 22:07:42 27° ESE 22:09:44 38° ENE 22:14:22 10° N
Cosmos 1544 Rocket 3.7 22:05:31 10° N 22:09:54 58° E 22:11:44 32° SSE
Cosmos 1743 3.7 22:07:14 10° NNW 22:10:52 43° W 22:13:50 14° SSW
Meteor 2-9 Rocket 4.0 22:05:48 10° N 22:11:10 76° E 22:14:27 25° SSE
Iridium 2 4.2 22:08:17 13° SSW 22:11:38 60° W 22:15:25 10° N
ATLAS CENTAUR R/B 4.4 22:13:02 10° W 22:14:43 12° WSW 22:16:25 10° SW
Cosmos 1356 3.3 22:15:41 41° S 22:16:46 79° E 22:20:15 10° N
SJ 16-02 2.4 22:15:49 10° N 22:19:41 29° ENE 22:20:26 27° E
Helios 1B rocket 4.0 22:16:54 10° NE 22:19:16 21° ENE 22:19:16 21° ENE
Cosmos 1536 Rocket 3.5 22:21:53 36° SSE 22:23:37 69° E 22:28:03 10° NNE
Cosmos 1898 Rocket 4.5 22:18:40 10° NNW 22:23:41 44° WSW 22:27:29 17° SSW
CENTAUR R/B 3.0 22:18:30 10° SW 22:24:14 59° NW 22:30:51 10° NNE
Meteor 1-23 Rocket 4.1 22:21:52 24° S 22:25:21 72° E 22:30:53 10° NNE
Cosmos 2333 Rocket 4.2 22:22:30 10° NNE 22:25:36 15° NE 22:27:41 12° ENE
Resurs 01 Rocket 3.8 22:23:46 10° SW 22:27:09 21° W 22:30:32 10° NW
SPOT 1/Viking Rocket 4.4 22:26:19 30° E 22:27:38 35° ENE 22:32:16 10° N
COSMOS 2428 4.1 22:24:21 10° N 22:28:55 24° ENE 22:30:38 21° E
H-2A R/B 1.8 22:29:02 38° SSE 22:30:59 81° ENE 22:36:01 10° N
CZ-4C R/B 4.1 22:25:14 10° NNW 22:31:33 31° NE 22:35:47 20° E
SL-08 RB Rocket 3.6 22:30:45 43° SSE 22:32:13 85° ENE 22:36:48 10° N
Aureole 2 Rocket 2.6 22:31:32 10° NNW 22:33:53 52° NW 22:33:53 52° NW
Meteor 2-4 Rocket 4.4 22:29:33 10° SSW 22:34:49 51° WNW 22:40:14 10° N
Cosmos 1515 3.8 22:35:38 42° SSW 22:36:48 71° W 22:40:38 10° N
Cosmos 1125 Rocket 4.2 22:32:10 10° N 22:37:02 38° ENE 22:38:03 34° E
Lacrosse 5 rocket 2.2 22:33:25 10° NNW 22:37:25 38° NE 22:38:05 35° ENE
ARGOS 3.4 22:37:57 29° S 22:40:41 64° WSW 22:46:04 10° NNW
Cosmos 2227 Rocket 4.2 22:47:43 12° ENE 22:47:43 12° ENE 22:48:34 10° ENE
Nadezhda 4 Rocket 4.2 22:40:05 10° N 22:46:19 57° E 22:48:05 43° SE
Cosmos 836 Rocket 4.4 22:45:34 27° SSW 22:48:24 84° WNW 22:53:38 10° NNE
Cosmos 2322 Rocket 3.5 22:46:00 10° NW 22:50:58 33° WSW 22:53:52 21° SSW
Cosmos 2322 3.7 22:45:52 10° NNW 22:51:36 69° ENE 22:52:56 51° SE
Cosmos 2237 Rocket 4.3 22:52:03 10° NNE 22:54:55 14° NE 22:56:28 13° ENE
DMSP B5D2-2 4.0 22:49:49 10° NNE 22:55:08 85° WNW 22:57:07 40° SSW
Centaur D-1AR AC-36 3.8 22:37:50 10° WSW 22:57:46 33° SSW 22:59:00 32° S
Landsat 7 4.0 22:57:52 54° E 22:58:03 54° ENE 23:02:42 10° N
Cosmos 1066 Rocket 4.1 22:58:35 58° ESE 22:59:05 61° E 23:04:26 10° NNE
SL-16 R/B 3.9 22:56:32 10° NW 23:01:06 26° WSW 23:04:04 17° SW
Cosmos 1025 Rocket 2.9 23:04:19 83° NNE 23:04:19 83° NNE 23:08:32 10° N
OAO 1 Rocket 4.3 23:04:30 10° W 23:09:47 69° SSW 23:09:47 69° SSW
USA 245 4.5 23:16:00 35° W 23:16:00 35° W 23:19:34 10° NNW
SL-19 R/B 4.5 23:15:34 59° SE 23:16:39 72° ENE 23:23:07 10° N
Terra 2.2 23:17:13 53° NE 23:17:13 53° NE 23:21:29 10° N
SPOT 5 2.8 23:17:09 67° W 23:17:09 67° W 23:21:34 10° NNW
Cosmos 2219 3.1 23:16:32 68° S 23:17:18 82° ESE 23:23:04 10° NNE
Cosmos 2237 4.3 23:16:42 10° NNW 23:22:23 65° WSW 23:23:05 60° SW
Cosmos 2142 Rocket 4.4 23:25:49 62° ESE 23:26:01 62° E 23:32:08 10° NNE
Helios 1A 4.0 23:28:06 41° W 23:28:06 41° W 23:31:39 10° NNW
Tiangong 2 4.0 23:31:15 10° NW 23:32:27 18° NNW 23:32:27 18° NNW
DELTA 2 R/B (1) 3.9 23:30:01 10° WSW 23:34:19 55° WSW 23:34:19 55° WSW
CZ-2C R/B 3.1 23:32:54 10° NNE 23:37:37 53° ENE 23:37:37 53° ENE
Cosmos 2360 Rocket 3.4 23:35:06 10° NW 23:39:58 31° WSW 23:40:45 29° WSW
Cosmos 2195 Rocket 4.3 23:34:50 10° N 23:41:01 77° E 23:41:12 76° ESE
Cosmos 1627 Rocket 4.3 23:35:35 10° N 23:41:43 74° E 23:41:49 74° E
Cosmos 2219 Rocket 2.2 23:38:04 10° NNW 23:43:21 71° NE 23:43:21 71° NE
Cosmos 1634 Rocket 4.0 23:42:54 66° SW 23:43:45 78° W 23:50:07 10° N
Cosmos 2333 4.3 23:39:36 10° NNW 23:45:09 69° W 23:45:09 69° W
COSMOS 2455 3.2 23:54:03 53° ENE 23:54:03 53° ENE 23:58:48 10° NNE
Helios 1B rocket 4.4 23:52:03 10° NNW 23:55:22 23° WNW 23:55:37 23° WNW
